Juneau, WI

1:30 AM CDT on May 26, 2017 (GMT -0500)
Dodge County

Weather History for KUNU - April, 2014

Change the Weather History Date:

Sunday, April 6, 2014

  Actual Average Record
Temperature  
Mean Temperature 44 °F -  
Max Temperature 57 °F 49 °F 80 °F (1991)
Min Temperature 32 °F 32 °F 12 °F (1979)
Degree Days  
Heating Degree Days 20    
Moisture  
Dew Point 27 °F    
Average Humidity 52    
Maximum Humidity 74    
Minimum Humidity 29    
Precipitation  
Precipitation 0.00 in - - ()
Sea Level Pressure  
Sea Level Pressure 30.03 in    
Wind  
Wind Speed 10 mph (South)    
Max Wind Speed 18 mph    
Max Gust Speed 24 mph    
Visibility 10 miles    
Events      
Averages and records for this station are not official NWS values.
T = Trace of Precipitation, MM = Missing Value Source: NWS Daily Summary

Daily Weather History Graph

Daily Weather History Graph

Search for Another Location

Airport or City:

Trip Planner

Search our weather history database for the weather conditions in past years. The results will help you decide how hot, cold, wet, or windy it might be!

Date:

Astronomy

Apr. 06, 2014 Rise Set
Actual Time 6:27 AM CDT 7:27 PM CDT
Civil Twilight 5:58 AM CDT 7:56 PM CDT
Nautical Twilight 5:23 AM CDT 8:31 PM CDT
Astronomical Twilight 4:47 AM CDT 9:07 PM CDT
Moon 11:22 AM CDT (4/6) 1:28 AM CDT (4/6)
Length of Visible Light 13h 57m
Length of Day
12h 59m
Waxing Crescent, 44% of the Moon is Illuminated
Apr 6
Waxing Crescent
Apr 7
First Quarter
Apr 15
Full
Apr 22
Last Quarter
Apr 29
New

Hourly Weather History & Observations

Time (CDT) Temp. Windchill Dew Point Humidity Pressure Visibility Wind Dir Wind Speed Gust Speed Precip Events Conditions
12:15 AM 36.0 °F 30.3 °F 23.4 °F 60% 30.11 in 10.0 mi South 6.9 mph - N/A   Clear
12:35 AM 35.2 °F 29.5 °F 23.7 °F 63% 30.11 in 10.0 mi SSW 6.9 mph - N/A   Clear
12:55 AM 35.6 °F 29.9 °F 23.9 °F 62% 30.10 in 10.0 mi South 6.9 mph - N/A   Clear
1:15 AM 34.9 °F 29.0 °F 24.6 °F 66% 30.10 in 10.0 mi South 6.9 mph - N/A   Clear
1:35 AM 34.9 °F 29.0 °F 24.8 °F 67% 30.10 in 10.0 mi South 6.9 mph - N/A   Clear
1:55 AM 35.1 °F 28.6 °F 24.8 °F 66% 30.10 in 10.0 mi South 8.1 mph - N/A   Clear
2:15 AM 34.9 °F 28.3 °F 24.6 °F 66% 30.09 in 10.0 mi South 8.1 mph - N/A   Clear
2:35 AM 34.7 °F 28.8 °F 24.8 °F 67% 30.09 in 10.0 mi South 6.9 mph - N/A   Clear
2:55 AM 34.3 °F 27.7 °F 24.6 °F 68% 30.09 in 10.0 mi South 8.1 mph - N/A   Clear
3:15 AM 34.3 °F 27.7 °F 24.8 °F 68% 30.09 in 10.0 mi South 8.1 mph - N/A   Clear
3:35 AM 34.2 °F 28.2 °F 24.8 °F 69% 30.09 in 10.0 mi South 6.9 mph - N/A   Clear
3:55 AM 33.8 °F 27.0 °F 24.6 °F 69% 30.09 in 10.0 mi South 8.1 mph - N/A   Clear
4:15 AM 34.0 °F 28.0 °F 24.6 °F 69% 30.09 in 10.0 mi South 6.9 mph - N/A   Clear
4:35 AM 33.3 °F 26.4 °F 24.8 °F 71% 30.08 in 10.0 mi South 8.1 mph - N/A   Clear
4:55 AM 33.3 °F 26.4 °F 24.6 °F 71% 30.08 in 10.0 mi South 8.1 mph - N/A   Clear
5:15 AM 33.1 °F 26.1 °F 24.8 °F 72% 30.08 in 10.0 mi South 8.1 mph - N/A   Clear
5:35 AM 33.1 °F 26.1 °F 24.8 °F 72% 30.08 in 10.0 mi South 8.1 mph - N/A   Clear
5:55 AM 32.9 °F 26.7 °F 24.8 °F 72% 30.09 in 10.0 mi South 6.9 mph - N/A   Clear
6:15 AM 32.4 °F 25.3 °F 24.8 °F 74% 30.09 in 10.0 mi South 8.1 mph - N/A   Clear
6:35 AM 32.4 °F 25.3 °F 25.0 °F 74% 30.09 in 10.0 mi South 8.1 mph - N/A   Clear
6:55 AM 32.7 °F 25.7 °F 25.3 °F 74% 30.09 in 10.0 mi South 8.1 mph - N/A   Clear
7:15 AM 33.6 °F 26.2 °F 25.7 °F 73% 30.10 in 10.0 mi South 9.2 mph - N/A   Clear
7:35 AM 35.1 °F 27.9 °F 26.2 °F 70% 30.11 in 10.0 mi South 9.2 mph - N/A   Scattered Clouds
7:55 AM 36.7 °F 28.9 °F 27.3 °F 69% 30.12 in 10.0 mi South 11.5 mph - N/A   Mostly Cloudy
8:15 AM 37.4 °F 29.8 °F 27.3 °F 67% 30.12 in 10.0 mi South 11.5 mph - N/A   Scattered Clouds
8:35 AM 38.7 °F 30.9 °F 27.7 °F 65% 30.11 in 10.0 mi South 12.7 mph - N/A   Clear
8:55 AM 40.6 °F 34.3 °F 28.6 °F 62% 30.10 in 10.0 mi South 10.4 mph - N/A   Clear
9:15 AM 42.3 °F 36.8 °F 28.4 °F 58% 30.10 in 10.0 mi South 9.2 mph - N/A   Clear
9:35 AM 43.7 °F 36.6 °F 28.4 °F 55% 30.09 in 10.0 mi South 15.0 mph 18.4 mph N/A   Clear
9:55 AM 44.6 °F 38.4 °F 28.8 °F 54% 30.09 in 10.0 mi SSW 12.7 mph - N/A   Clear
10:15 AM 46.9 °F - 28.2 °F 48% 30.09 in 10.0 mi SSW 13.8 mph - N/A   Clear
10:35 AM 46.9 °F - 29.1 °F 50% 30.08 in 10.0 mi SSW 15.0 mph 19.6 mph N/A   Clear
10:55 AM 48.9 °F - 28.8 °F 46% 30.07 in 10.0 mi SSW 13.8 mph - N/A   Clear
11:15 AM 49.5 °F - 28.0 °F 44% 30.07 in 10.0 mi SSW 18.4 mph - N/A   Clear
11:35 AM 50.5 °F - 28.9 °F 43% 30.07 in 10.0 mi SSW 16.1 mph - N/A   Clear
11:55 AM 51.8 °F - 28.6 °F 41% 30.06 in 10.0 mi South 16.1 mph 20.7 mph N/A   Clear
12:15 PM 52.5 °F - 28.6 °F 40% 30.05 in 10.0 mi South 17.3 mph 21.9 mph N/A   Clear
12:35 PM 52.5 °F - 27.5 °F 38% 30.04 in 10.0 mi South 17.3 mph 21.9 mph N/A   Mostly Cloudy
12:55 PM 53.2 °F - 25.3 °F 34% 30.02 in 10.0 mi South 16.1 mph - N/A   Mostly Cloudy
1:15 PM 55.0 °F - 24.4 °F 31% 30.02 in 10.0 mi South 17.3 mph 24.2 mph N/A   Clear
1:35 PM 55.6 °F - 25.2 °F 31% 30.01 in 10.0 mi SSW 18.4 mph - N/A   Clear
1:55 PM 55.8 °F - 26.4 °F 32% 29.99 in 10.0 mi South 15.0 mph 24.2 mph N/A   Clear
2:15 PM 54.5 °F - 25.3 °F 32% 29.98 in 10.0 mi South 15.0 mph - N/A   Clear
2:35 PM 56.8 °F - 25.0 °F 29% 29.97 in 10.0 mi South 17.3 mph 20.7 mph N/A   Clear
2:55 PM 56.5 °F - 25.7 °F 31% 29.96 in 10.0 mi SSE 13.8 mph 21.9 mph N/A   Clear
3:15 PM 56.8 °F - 24.8 °F 29% 29.95 in 10.0 mi SSE 13.8 mph - N/A   Clear
3:35 PM 57.2 °F - 25.3 °F 29% 29.94 in 10.0 mi South 10.4 mph 18.4 mph N/A   Clear
3:55 PM 56.8 °F - 27.0 °F 32% 29.94 in 10.0 mi SSW 15.0 mph 18.4 mph N/A   Clear
4:15 PM 57.0 °F - 26.1 °F 30% 29.93 in 10.0 mi South 12.7 mph - N/A   Clear
4:35 PM 55.8 °F - 26.8 °F 33% 29.93 in 10.0 mi South 10.4 mph - N/A   Clear
4:55 PM 55.9 °F - 27.0 °F 33% 29.93 in 10.0 mi South 11.5 mph - N/A   Clear
5:15 PM 55.9 °F - 27.3 °F 33% 29.93 in 10.0 mi South 10.4 mph - N/A   Clear
5:35 PM 56.1 °F - 27.5 °F 33% 29.93 in 10.0 mi South 11.5 mph - N/A   Clear
5:55 PM 55.8 °F - 28.0 °F 35% 29.94 in 10.0 mi South 13.8 mph - N/A   Clear
6:15 PM 55.4 °F - 28.2 °F 35% 29.94 in 10.0 mi South 11.5 mph - N/A   Clear
6:35 PM 54.1 °F - 27.7 °F 36% 29.94 in 10.0 mi South 13.8 mph 23.0 mph N/A   Scattered Clouds
6:55 PM 52.9 °F - 27.7 °F 38% 29.94 in 10.0 mi South 12.7 mph - N/A   Scattered Clouds
7:15 PM 52.3 °F - 27.1 °F 38% 29.94 in 10.0 mi South 12.7 mph - N/A   Scattered Clouds
7:35 PM 51.4 °F - 27.1 °F 39% 29.94 in 10.0 mi South 12.7 mph - N/A   Mostly Cloudy
7:55 PM 50.7 °F - 27.7 °F 41% 29.95 in 10.0 mi South 12.7 mph - N/A   Scattered Clouds
8:15 PM 50.0 °F - 27.1 °F 41% 29.95 in 10.0 mi South 11.5 mph - N/A   Scattered Clouds
8:35 PM 48.2 °F - 27.5 °F 45% 29.95 in 10.0 mi South 10.4 mph - N/A   Clear
8:55 PM 46.9 °F - 27.5 °F 47% 29.96 in 10.0 mi South 8.1 mph - N/A   Clear
9:15 PM 46.2 °F 41.7 °F 27.5 °F 48% 29.96 in 10.0 mi SSE 9.2 mph - N/A   Clear
9:35 PM 46.6 °F - 27.9 °F 48% 29.96 in 10.0 mi SSE 8.1 mph - N/A   Clear
9:55 PM 46.8 °F - 28.9 °F 50% 29.96 in 10.0 mi SSE 10.4 mph - N/A   Scattered Clouds
10:15 PM 47.1 °F - 29.7 °F 51% 29.96 in 10.0 mi SSE 10.4 mph - N/A   Mostly Cloudy
10:35 PM 46.4 °F 42.9 °F 30.4 °F 54% 29.95 in 10.0 mi South 6.9 mph - N/A   Overcast
10:55 PM 45.5 °F 43.2 °F 30.2 °F 55% 29.95 in 10.0 mi South 4.6 mph - N/A   Scattered Clouds
11:15 PM 44.8 °F - 30.7 °F 58% 29.93 in 10.0 mi Calm Calm - N/A   Clear
11:35 PM 44.4 °F 42.9 °F 30.7 °F 59% 29.93 in 10.0 mi SSE 3.5 mph - N/A   Clear
11:55 PM 43.7 °F 42.1 °F 30.6 °F 60% 29.92 in 10.0 mi South 3.5 mph - N/A   Clear